Content
SEND FEEDBACK

Daily
Averages
Monthly
Summary
China

WUHAN, CHINA


Home > Asia > China
Elevation: 75 feet     Latitude: 30 37N     Longitude: 114 08E

WEATHER
 
SELECT A DAY
Number of Records: 138,283;   Date Range: 1/29/00 - 8/31/14
 
SHARE

PRINT THIS DATA

[ ← Previous Day ]
WEATHER ALMANAC - APRIL 26, 2013
[ Next Day → ]
[ °C ]   °F
Weather ElementAverageHighLow
Temperature70.9 °F82.4 °F (3:00 pm)55 °F (5:00 am)
Dewpoint57 °F63 °F (11:00 am)50 °F (6:00 pm)
Humidity63.7 %98 % (2:00 am)30 % (5:00 pm)
Barometer29.95 in30.02 in (11:00 am)29.85 in (5:00 pm)
Wind Speed4.2 mph8.9 mph (12:00 pm)
Weather ElementAverage
Visibility3.4 mi
Wind DirectionSSE (154.8 °)

Weather ElementTotal
Precipitation---
Cooling Degree Days3.7 (Base 65)
Growing Degree Days18.7 (Base 50)
Averaged from 30 records on April 26, 2013
WEATHER CONDITIONS BREAKOUT
WIND DIRECTION BREAKOUT
WEATHER BY HOUR - APRIL 26, 2013
[ °C ]   °F
Local TimeTemperatureDewpointHumidityBarometerVisibilityWind DirectionWind SpeedGust SpeedPrecipitationEventsConditions
1:00 AM64.4 °F59.0 °F83 %30.01 in1.0 miWSW (250°)4.5 mphMist
2:00 AM56.0 °F56.0 °F98 %30.01 in2.0 miCalmMist
2:00 AM62.6 °F57.2 °F82 %30.01 in1.0 miVariable2.2 mphMist
3:00 AM62.6 °F57.2 °F82 %30.01 in1.1 miCalmMist
4:00 AM62.6 °F57.2 °F82 %29.98 in1.0 miSW (230°)4.5 mphMist
5:00 AM55.0 °F54.0 °F97 %29.99 in0.0 miCalmFogHeavy Fog
5:00 AM60.8 °F57.2 °F88 %30.01 in1.0 miCalmMist
6:00 AM60.8 °F57.2 °F88 %30.01 in0.6 miSouth (190°)2.2 mphMist
7:00 AM62.6 °F59.0 °F88 %30.01 in0.4 miVariable2.2 mphFogFog
8:00 AM64.4 °F60.8 °F88 %30.01 in0.6 miESE (120°)4.5 mphFogFog
9:00 AM69.8 °F60.8 °F73 %30.01 in0.8 miSE (140°)4.5 mphMist
10:00 AM71.6 °F59.0 °F64 %30.01 in1.1 miSouth (180°)4.5 mphHaze
11:00 AM74.0 °F63.0 °F59 %30.02 in7.0 miSSW (200°)6.7 mphClear
11:00 AM75.2 °F60.8 °F61 %30.01 in1.7 miVariable6.7 mphHaze
12:00 PM78.8 °F60.8 °F54 %30.01 in1.4 miSSW (200°)8.9 mphHaze
1:00 PM80.6 °F57.2 °F45 %29.98 in1.6 miSouth (190°)8.9 mphHaze
2:00 PM80.0 °F58.0 °F37 %29.94 in14.0 miSW (220°)6.7 mphClear
2:00 PM80.6 °F57.2 °F45 %29.95 in1.7 miSSW (210°)6.7 mphHaze
3:00 PM82.4 °F55.4 °F39 %29.92 in2.2 miSW (220°)8.9 mphHaze
4:00 PM82.4 °F55.4 °F39 %29.89 in3.1 miSW (230°)8.9 mphHaze
5:00 PM82.0 °F56.0 °F30 %29.85 in14.0 miWSW (250°)2.2 mphClear
5:00 PM82.4 °F51.8 °F35 %29.86 in3.1 miSW (220°)6.7 mphHaze
6:00 PM80.6 °F50.0 °F34 %29.86 inWSW (240°)2.2 mphClear
7:00 PM77.0 °F53.6 °F44 %29.86 inSW (230°)4.5 mphClear
8:00 PM67.0 °F60.0 °F73 %29.85 in11.0 miSouth (180°)2.2 mphClear
8:00 PM75.2 °F53.6 °F47 %29.86 inSouth (180°)2.2 mphClear
9:00 PM73.4 °F51.8 °F47 %29.86 inSouth (170°)4.5 mphClear
10:00 PM71.6 °F55.4 °F57 %29.86 inSE (130°)6.7 mphClear
11:00 PM61.0 °F59.0 °F89 %29.85 in9.0 miCalmClear
11:00 PM69.8 °F57.2 °F64 %29.86 in4.3 miVariable2.2 mph
Hourly data recorded from ZHHH, located miles away from Wuhan, China







STORIES FROM OUR PARTNERS